Weather History for Eastsound, WA

Change the Weather History Date:

Monday, April 21, 2014

  Actual Average (KBLI) Record (KBLI)
Temperature  
Mean Temperature 47 °F 49 °F  
Max Temperature 50 °F 58 °F 70 °F (1959)
Min Temperature 44 °F 41 °F 28 °F (1951)
Degree Days  
Heating Degree Days 18 16  
Month to date heating degree days 361  
Cooling Degree Days 0 0  
Month to date cooling degree days 0  
Year to date cooling degree days 0  
Moisture  
Dew Point 44 °F    
Average Humidity 86    
Maximum Humidity 100    
Minimum Humidity 71    
Precipitation  
Precipitation 0.00 in 0.08 in 0.81 in (1964)
Month to date precipitation 1.98  
Year to date precipitation 12.89  
Sea Level Pressure  
Sea Level Pressure 29.97 in    
Wind  
Wind Speed 2 mph (North)    
Max Wind Speed 8 mph    
Max Gust Speed -    
Visibility 9 miles    
Events Rain    
T = Trace of Precipitation, MM = Missing Value Source: NWS Daily Summary

Daily Weather History Graph

Daily Weather History Graph

Search for Another Location

Airport:

Trip Planner

Search our weather history database for the weather conditions in past years. The results will help you decide how hot, cold, wet, or windy it might be!

Date:

Astronomy

Apr. 21, 2014 Rise Set
Actual Time 6:09 AM PDT 8:12 PM PDT
Civil Twilight 5:35 AM PDT 8:46 PM PDT
Nautical Twilight 4:53 AM PDT 9:28 PM PDT
Astronomical Twilight 4:06 AM PDT 10:15 PM PDT
Moon 1:53 AM PDT (4/21) 11:36 AM PDT (4/21)
Length of Visible Light 15h 10m
Length of Day
14h 03m
Waning Gibbous, 56% of the Moon is Illuminated
Apr 21
Waning Gibbous
Apr 22
Last Quarter
Apr 28
New
May 6
First Quarter
May 14
Full

Hourly Weather History & Observations

Time (PDT) Temp. Windchill Dew Point Humidity Pressure Visibility Wind Dir Wind Speed Gust Speed Precip Events Conditions
12:15 AM 48.2 °F - 41.0 °F 76% 30.10 in 10.0 mi Calm Calm - N/A   Clear
12:35 AM 48.2 °F - 41.0 °F 76% 30.11 in 10.0 mi Calm Calm - N/A   Clear
12:55 AM 46.4 °F - 41.0 °F 81% 30.10 in 10.0 mi Calm Calm - N/A   Clear
1:15 AM 46.4 °F - 41.0 °F 81% 30.09 in 10.0 mi Calm Calm - N/A   Clear
1:35 AM 44.6 °F - 41.0 °F 87% 30.09 in 10.0 mi Calm Calm - N/A   Clear
1:55 AM 44.6 °F - 41.0 °F 87% 30.09 in 9.0 mi Calm Calm - N/A   Clear
2:15 AM 44.6 °F - 41.0 °F 87% 30.09 in 9.0 mi Calm Calm - N/A   Clear
2:35 AM 46.4 °F - 42.8 °F 87% 30.09 in 10.0 mi Calm Calm - N/A   Clear
2:55 AM 46.4 °F - 42.8 °F 87% 30.08 in 10.0 mi Calm Calm - N/A   Clear
3:15 AM 46.4 °F - 42.8 °F 87% 30.07 in 10.0 mi Calm Calm - N/A   Clear
3:35 AM 46.4 °F - 42.8 °F 87% 30.08 in 10.0 mi Calm Calm - N/A   Partly Cloudy
3:55 AM 46.4 °F - 42.8 °F 87% 30.06 in 10.0 mi Calm Calm - N/A   Clear
4:15 AM 48.2 °F - 42.8 °F 82% 30.06 in 10.0 mi ENE 3.5 mph - N/A   Clear
4:35 AM 48.2 °F - 42.8 °F 82% 30.05 in 10.0 mi Calm Calm - N/A   Partly Cloudy
4:55 AM 48.2 °F - 42.8 °F 82% 30.05 in 10.0 mi Calm Calm - N/A   Clear
5:15 AM 48.2 °F - 41.0 °F 76% 30.05 in 10.0 mi ENE 3.5 mph - N/A   Clear
5:35 AM 48.2 °F - 41.0 °F 76% 30.04 in 10.0 mi ENE 3.5 mph - N/A   Clear
5:55 AM 46.4 °F - 42.8 °F 87% 30.04 in 10.0 mi Calm Calm - N/A   Clear
6:15 AM 46.4 °F 45.2 °F 42.8 °F 87% 30.03 in 10.0 mi ENE 3.5 mph - N/A   Clear
6:35 AM 46.4 °F - 41.0 °F 81% 30.03 in 10.0 mi Calm Calm - N/A   Clear
6:55 AM 46.4 °F - 42.8 °F 87% 30.02 in 9.0 mi Calm Calm - N/A   Clear
7:15 AM 44.6 °F - 42.8 °F 93% 30.03 in 8.0 mi Calm Calm - N/A   Clear
7:35 AM 46.4 °F - 42.8 °F 87% 30.03 in 8.0 mi Calm Calm - N/A   Clear
7:55 AM 46.4 °F - 42.8 °F 87% 30.02 in 8.0 mi Calm Calm - N/A   Clear
8:15 AM 46.4 °F - 44.6 °F 93% 30.03 in 9.0 mi Calm Calm - N/A   Clear
8:35 AM 48.2 °F - 44.6 °F 87% 30.02 in 9.0 mi Calm Calm - N/A   Clear
8:55 AM 48.2 °F - 42.8 °F 82% 30.01 in 9.0 mi Calm Calm - N/A   Clear
9:15 AM 48.2 °F - 44.6 °F 87% 30.01 in 9.0 mi Calm Calm - N/A   Clear
9:35 AM 48.2 °F - 44.6 °F 87% 30.00 in 9.0 mi North 4.6 mph - N/A   Partly Cloudy
9:55 AM 48.2 °F - 44.6 °F 87% 30.00 in 8.0 mi Calm Calm - N/A   Clear
10:15 AM 50.0 °F - 44.6 °F 82% 30.00 in 10.0 mi Calm Calm - N/A   Clear
10:35 AM 48.2 °F - 44.6 °F 87% 30.00 in 8.0 mi NNW 5.8 mph - N/A   Partly Cloudy
10:55 AM 50.0 °F - 42.8 °F 76% 30.00 in 9.0 mi North 5.8 mph - N/A   Clear
11:15 AM 50.0 °F - 42.8 °F 76% 30.00 in 9.0 mi NNW 6.9 mph - N/A   Scattered Clouds
11:35 AM 50.0 °F - 41.0 °F 71% 29.99 in 10.0 mi North 6.9 mph - N/A   Partly Cloudy
11:55 AM 50.0 °F - 41.0 °F 71% 29.99 in 10.0 mi North 4.6 mph - N/A   Partly Cloudy
12:15 PM 48.2 °F - 41.0 °F 76% 29.98 in 8.0 mi North 4.6 mph - N/A   Partly Cloudy
12:35 PM 48.2 °F - 41.0 °F 76% 29.98 in 9.0 mi North 4.6 mph - N/A   Partly Cloudy
12:55 PM 50.0 °F - 41.0 °F 71% 29.98 in 9.0 mi North 3.5 mph - N/A   Mostly Cloudy
1:15 PM 50.0 °F - 42.8 °F 76% 29.97 in 9.0 mi North 5.8 mph - N/A   Mostly Cloudy
1:35 PM 50.0 °F - 41.0 °F 71% 29.96 in 9.0 mi NNW 4.6 mph - N/A   Scattered Clouds
1:55 PM 50.0 °F - 42.8 °F 76% 29.96 in 8.0 mi North 5.8 mph - N/A   Scattered Clouds
2:15 PM 50.0 °F - 41.0 °F 71% 29.95 in 9.0 mi North 6.9 mph - N/A   Scattered Clouds
2:35 PM 50.0 °F - 42.8 °F 76% 29.94 in 8.0 mi North 4.6 mph - N/A   Mostly Cloudy
2:55 PM 50.0 °F - 42.8 °F 76% 29.94 in 9.0 mi NNW 4.6 mph - N/A   Overcast
3:15 PM 50.0 °F - 44.6 °F 82% 29.93 in 9.0 mi NNW 6.9 mph - N/A   Overcast
3:35 PM 50.0 °F - 46.4 °F 87% 29.92 in 9.0 mi NNW 8.1 mph - N/A   Overcast
3:55 PM 50.0 °F - 46.4 °F 87% 29.92 in 8.0 mi NNW 8.1 mph - N/A   Scattered Clouds
4:15 PM 50.0 °F - 46.4 °F 87% 29.91 in 8.0 mi NNW 6.9 mph - N/A   Scattered Clouds
4:35 PM 50.0 °F - 46.4 °F 87% 29.90 in 9.0 mi NNW 5.8 mph - N/A   Partly Cloudy
4:55 PM 50.0 °F - 46.4 °F 87% 29.90 in 9.0 mi North 4.6 mph - N/A   Clear
5:15 PM 50.0 °F - 46.4 °F 87% 29.90 in 8.0 mi NNW 5.8 mph - N/A   Clear
5:35 PM 50.0 °F - 46.4 °F 87% 29.90 in 9.0 mi Calm Calm - N/A   Mostly Cloudy
5:55 PM 48.2 °F - 46.4 °F 93% 29.89 in 9.0 mi NW 4.6 mph - N/A   Mostly Cloudy
6:15 PM 48.2 °F - 46.4 °F 93% 29.88 in 9.0 mi NW 4.6 mph - N/A   Mostly Cloudy
6:35 PM 48.2 °F - 46.4 °F 93% 29.88 in 8.0 mi North 5.8 mph - N/A   Scattered Clouds
6:55 PM 48.2 °F - 46.4 °F 93% 29.88 in 9.0 mi Calm Calm - N/A   Mostly Cloudy
7:15 PM 48.2 °F - 46.4 °F 93% 29.88 in 8.0 mi Calm Calm - N/A   Mostly Cloudy
7:35 PM 48.2 °F - 46.4 °F 93% 29.88 in 8.0 mi Calm Calm - N/A   Mostly Cloudy
7:55 PM 48.2 °F - 46.4 °F 93% 29.87 in 7.0 mi North 4.6 mph - N/A   Overcast
8:15 PM 48.2 °F - 46.4 °F 93% 29.86 in 8.0 mi North 6.9 mph - N/A Rain Light Rain
8:35 PM 48.2 °F - 46.4 °F 93% 29.86 in 8.0 mi North 6.9 mph - N/A Rain Light Rain
8:55 PM 48.2 °F - 46.4 °F 93% 29.86 in 9.0 mi Calm Calm - N/A   Overcast
9:15 PM 48.2 °F - 46.4 °F 93% 29.87 in 8.0 mi Calm Calm - N/A   Overcast
9:35 PM 48.2 °F - 46.4 °F 93% 29.87 in 8.0 mi Calm Calm - N/A   Overcast
9:55 PM 48.2 °F - 46.4 °F 93% 29.86 in 5.0 mi Calm Calm - N/A Rain Light Rain
10:15 PM 48.2 °F - 46.4 °F 93% 29.86 in 5.0 mi Calm Calm - N/A Rain Light Rain
10:35 PM 46.4 °F - 46.4 °F 100% 29.85 in 7.0 mi Calm Calm - N/A Rain Light Rain
10:55 PM 46.4 °F - 46.4 °F 100% 29.84 in 8.0 mi Calm Calm - N/A   Overcast
11:15 PM 46.4 °F - 46.4 °F 100% 29.84 in 10.0 mi Calm Calm - N/A   Overcast
11:35 PM 46.4 °F - 44.6 °F 93% 29.83 in 10.0 mi Calm Calm - N/A   Overcast
11:55 PM 46.4 °F - 46.4 °F 100% 29.82 in 10.0 mi Calm Calm - N/A   Overcast